UAL155 PTPN-PTSA

Flight info

Callsign UAL155
Flight time 0h 53m
Altitude 31000
Route AXTEN AMZAP
Aircraft B38M/M-SDE1FGHILORVWXY/HB1

Departure

Time 2026-04-21 14:11
Airport Pohnpei International Airport (PTPN)

Arrival

Time 2026-04-21 15:04
Airport Kosrae International Airport (PTSA)
Time Latitude Longitude Altitude Speed Heading
2026-04-21 13:42 6.98194 158.20393 20 ft 0 kts 178°
2026-04-21 13:42 6.98195 158.20393 20 ft 0 kts 178°
2026-04-21 14:04 6.98214 158.20392 21 ft 4 kts 180°
2026-04-21 14:04 6.98241 158.20390 21 ft 4 kts 166°
2026-04-21 14:05 6.98265 158.20380 26 ft 4 kts 138°
2026-04-21 14:05 6.98274 158.20362 20 ft 4 kts 73°
2026-04-21 14:05 6.98265 158.20352 25 ft 0 kts
2026-04-21 14:08 6.98273 158.20354 20 ft 2 kts
2026-04-21 14:08 6.98306 158.20357 20 ft 8 kts
2026-04-21 14:09 6.98383 158.20356 22 ft 14 kts 359°
2026-04-21 14:09 6.98481 158.20346 23 ft 14 kts 332°
2026-04-21 14:09 6.98514 158.20256 24 ft 15 kts 272°
2026-04-21 14:09 6.98488 158.20157 24 ft 16 kts 238°
2026-04-21 14:10 6.98492 158.20089 24 ft 6 kts 353°
2026-04-21 14:10 6.98511 158.20108 25 ft 5 kts 73°
2026-04-21 14:10 6.98514 158.20139 24 ft 0 kts 89°
2026-04-21 14:10 6.98514 158.20287 23 ft 58 kts 90°
2026-04-21 14:11 6.98513 158.20910 26 ft 122 kts 90°
2026-04-21 14:11 6.98505 158.21950 129 ft 164 kts 90°
2026-04-21 14:11 6.98481 158.23092 829 ft 165 kts 90°
2026-04-21 14:11 6.98471 158.24248 1476 ft 166 kts 89°
2026-04-21 14:12 6.98493 158.25405 2042 ft 166 kts 88°
2026-04-21 14:12 6.98516 158.26575 2574 ft 167 kts 89°
2026-04-21 14:12 6.98420 158.27737 3092 ft 172 kts 106°
2026-04-21 14:12 6.97919 158.28923 3420 ft 195 kts 111°
2026-04-21 14:13 6.97383 158.30273 3779 ft 222 kts 110°
2026-04-21 14:13 6.96777 158.31794 4233 ft 243 kts 111°
2026-04-21 14:13 6.96124 158.33420 4881 ft 258 kts 111°
2026-04-21 14:13 6.95434 158.35129 5619 ft 266 kts 111°
2026-04-21 14:14 6.94732 158.36864 6606 ft 270 kts 111°
2026-04-21 14:14 6.94015 158.38632 7477 ft 275 kts 111°
2026-04-21 14:14 6.93291 158.40419 8354 ft 278 kts 111°
2026-04-21 14:14 6.92556 158.42232 9178 ft 281 kts 111°
2026-04-21 14:15 6.91814 158.44062 9974 ft 285 kts 111°
2026-04-21 14:15 6.91048 158.45950 10464 ft 300 kts 111°
2026-04-21 14:15 6.90231 158.47962 10760 ft 320 kts 111°
2026-04-21 14:15 6.89368 158.50089 11146 ft 335 kts 111°
2026-04-21 14:16 6.88477 158.52283 11754 ft 340 kts 111°
2026-04-21 14:16 6.87580 158.54494 12474 ft 344 kts 111°
2026-04-21 14:16 6.86682 158.56706 13142 ft 347 kts 111°
2026-04-21 14:16 6.85765 158.58963 13835 ft 351 kts 111°
2026-04-21 14:17 6.84836 158.61249 14423 ft 354 kts 111°
2026-04-21 14:17 6.83901 158.63552 15062 ft 357 kts 111°
2026-04-21 14:17 6.82955 158.65879 15638 ft 361 kts 111°
2026-04-21 14:17 6.82051 158.68248 16216 ft 364 kts 108°
2026-04-21 14:18 6.81248 158.70682 16784 ft 368 kts 108°
2026-04-21 14:18 6.80428 158.73130 17339 ft 371 kts 108°
2026-04-21 14:18 6.79594 158.75602 17882 ft 374 kts 108°
2026-04-21 14:18 6.78753 158.78090 18379 ft 378 kts 108°
2026-04-21 14:19 6.77901 158.80603 18831 ft 380 kts 108°
2026-04-21 14:19 6.77044 158.83131 19274 ft 383 kts 108°
2026-04-21 14:19 6.76473 158.84815 19570 ft 385 kts 108°
2026-04-21 14:19 6.75311 158.88241 20138 ft 389 kts 108°
2026-04-21 14:20 6.74433 158.90830 20561 ft 392 kts 108°
2026-04-21 14:20 6.73549 158.93434 21014 ft 394 kts 108°
2026-04-21 14:20 6.72963 158.95162 21307 ft 395 kts 108°
2026-04-21 14:20 6.71770 158.98676 21857 ft 399 kts 108°
2026-04-21 14:21 6.70870 159.01327 22254 ft 401 kts 108°
2026-04-21 14:21 6.69966 159.03989 22670 ft 404 kts 108°
2026-04-21 14:21 6.69055 159.06670 23065 ft 406 kts 108°
2026-04-21 14:21 6.68138 159.09370 23448 ft 409 kts 108°
2026-04-21 14:22 6.67217 159.12081 23764 ft 411 kts 108°
2026-04-21 14:22 6.66288 159.14814 24078 ft 414 kts 108°
2026-04-21 14:22 6.65354 159.17561 24389 ft 416 kts 108°
2026-04-21 14:22 6.64417 159.20319 24696 ft 419 kts 108°
2026-04-21 14:23 6.63469 159.23105 24968 ft 422 kts 108°
2026-04-21 14:23 6.62530 159.25866 25271 ft 424 kts 108°
2026-04-21 14:23 6.61559 159.28718 25579 ft 427 kts 108°
2026-04-21 14:23 6.60596 159.31551 25871 ft 429 kts 108°
2026-04-21 14:24 6.59640 159.34360 26151 ft 432 kts 108°
2026-04-21 14:24 6.58664 159.37226 26454 ft 434 kts 108°
2026-04-21 14:24 6.57683 159.40108 26746 ft 437 kts 108°
2026-04-21 14:24 6.56697 159.43002 27037 ft 439 kts 108°
2026-04-21 14:25 6.55706 159.45914 27325 ft 441 kts 108°
2026-04-21 14:25 6.54708 159.48842 27616 ft 443 kts 108°
2026-04-21 14:25 6.53706 159.51783 27878 ft 446 kts 108°
2026-04-21 14:25 6.52698 159.54741 28161 ft 449 kts 108°
2026-04-21 14:26 6.51683 159.57716 28421 ft 451 kts 108°
2026-04-21 14:26 6.50662 159.60711 28694 ft 454 kts 108°
2026-04-21 14:26 6.49638 159.63715 28962 ft 456 kts 108°
2026-04-21 14:26 6.48606 159.66741 29217 ft 458 kts 108°
2026-04-21 14:27 6.47569 159.69778 29482 ft 460 kts 108°
2026-04-21 14:27 6.46527 159.72831 29739 ft 463 kts 108°
2026-04-21 14:27 6.45482 159.75894 29975 ft 465 kts 108°
2026-04-21 14:27 6.44430 159.78975 30198 ft 467 kts 108°
2026-04-21 14:28 6.43373 159.82069 30430 ft 468 kts 108°
2026-04-21 14:28 6.42315 159.85166 30655 ft 470 kts 108°
2026-04-21 14:28 6.41252 159.88280 30843 ft 472 kts 108°
2026-04-21 14:29 6.39105 159.94559 30878 ft 476 kts 108°
2026-04-21 14:29 6.36956 160.00846 30878 ft 475 kts 108°
2026-04-21 14:30 6.34819 160.07092 30876 ft 476 kts 108°
2026-04-21 14:30 6.32668 160.13378 30876 ft 476 kts 108°
2026-04-21 14:31 6.30517 160.19660 30876 ft 476 kts 108°
2026-04-21 14:31 6.28373 160.25921 30874 ft 471 kts 107°
2026-04-21 14:32 6.26241 160.32143 30875 ft 471 kts 107°
2026-04-21 14:32 6.24109 160.38362 30875 ft 471 kts 107°
2026-04-21 14:33 6.21975 160.44586 30876 ft 471 kts 107°
2026-04-21 14:33 6.19842 160.50802 30874 ft 471 kts 107°
2026-04-21 14:34 6.17709 160.57017 30876 ft 468 kts 108°
2026-04-21 14:34 6.15590 160.63189 30870 ft 467 kts 108°
2026-04-21 14:35 6.13473 160.69351 30873 ft 467 kts 108°
2026-04-21 14:35 6.11355 160.75516 30875 ft 467 kts 108°
2026-04-21 14:36 6.09233 160.81686 30874 ft 467 kts 108°
2026-04-21 14:36 6.07110 160.87859 30873 ft 467 kts 108°
2026-04-21 14:37 6.04987 160.94029 30869 ft 467 kts 108°
2026-04-21 14:37 6.02878 161.00156 30873 ft 467 kts 108°
2026-04-21 14:38 6.00753 161.06328 30870 ft 467 kts 108°
2026-04-21 14:38 5.98629 161.12493 30867 ft 467 kts 108°
2026-04-21 14:39 5.96504 161.18660 30870 ft 467 kts 108°
2026-04-21 14:39 5.94376 161.24830 30830 ft 467 kts 108°
2026-04-21 14:39 5.93316 161.27905 30633 ft 465 kts 108°
2026-04-21 14:40 5.92259 161.30970 30405 ft 463 kts 108°
2026-04-21 14:40 5.91207 161.34019 30185 ft 461 kts 108°
2026-04-21 14:40 5.90157 161.37061 29963 ft 460 kts 108°
2026-04-21 14:40 5.89111 161.40091 29707 ft 458 kts 108°
2026-04-21 14:41 5.88070 161.43107 29447 ft 456 kts 108°
2026-04-21 14:41 5.87031 161.46114 29193 ft 455 kts 108°
2026-04-21 14:41 5.85999 161.49103 28876 ft 450 kts 108°
2026-04-21 14:41 5.84977 161.52061 28167 ft 449 kts 108°
2026-04-21 14:42 5.83953 161.55027 27431 ft 450 kts 108°
2026-04-21 14:42 5.82931 161.57983 26886 ft 446 kts 108°
2026-04-21 14:42 5.81933 161.60873 26346 ft 443 kts 108°
2026-04-21 14:42 5.80927 161.63783 25785 ft 440 kts 108°
2026-04-21 14:43 5.79925 161.66682 25227 ft 438 kts 108°
2026-04-21 14:43 5.78928 161.69563 24678 ft 436 kts 108°
2026-04-21 14:43 5.77934 161.72436 24125 ft 434 kts 109°
2026-04-21 14:43 5.76949 161.75286 23572 ft 430 kts 109°
2026-04-21 14:44 5.75977 161.78094 22948 ft 422 kts 109°
2026-04-21 14:44 5.75025 161.80846 22399 ft 413 kts 109°
2026-04-21 14:44 5.74091 161.83545 21876 ft 406 kts 109°
2026-04-21 14:44 5.73167 161.86213 21381 ft 404 kts 109°
2026-04-21 14:45 5.72248 161.88869 20933 ft 400 kts 109°
2026-04-21 14:45 5.71339 161.91492 20495 ft 397 kts 109°
2026-04-21 14:45 5.70436 161.94099 20023 ft 395 kts 109°
2026-04-21 14:45 5.69538 161.96694 19547 ft 393 kts 109°
2026-04-21 14:46 5.68642 161.99281 19083 ft 391 kts 109°
2026-04-21 14:46 5.67750 162.01852 18619 ft 390 kts 109°
2026-04-21 14:46 5.66861 162.04418 18155 ft 388 kts 110°
2026-04-21 14:46 5.65975 162.06975 17641 ft 387 kts 109°
2026-04-21 14:47 5.65094 162.09516 17172 ft 384 kts 110°
2026-04-21 14:47 5.64221 162.12034 16721 ft 381 kts 110°
2026-04-21 14:47 5.63354 162.14534 16283 ft 378 kts 110°
2026-04-21 14:47 5.62493 162.17018 15849 ft 375 kts 110°
2026-04-21 14:48 5.61650 162.19448 15432 ft 373 kts 110°
2026-04-21 14:48 5.60801 162.21897 15005 ft 370 kts 110°
2026-04-21 14:48 5.59958 162.24326 14585 ft 368 kts 110°
2026-04-21 14:48 5.59118 162.26746 14177 ft 366 kts 110°
2026-04-21 14:49 5.58283 162.29154 13764 ft 364 kts 110°
2026-04-21 14:49 5.57452 162.31546 13289 ft 362 kts 110°
2026-04-21 14:49 5.56894 162.33156 12988 ft 361 kts 110°
2026-04-21 14:49 5.56074 162.35519 12565 ft 358 kts 110°
2026-04-21 14:50 5.55260 162.37864 12252 ft 352 kts 110°
2026-04-21 14:50 5.54480 162.40110 12160 ft 339 kts 110°
2026-04-21 14:50 5.53717 162.42307 12059 ft 329 kts 110°
2026-04-21 14:50 5.52965 162.44471 11820 ft 332 kts 110°
2026-04-21 14:51 5.52194 162.46691 11408 ft 340 kts 110°
2026-04-21 14:51 5.51775 162.49029 10989 ft 343 kts 90°
2026-04-21 14:51 5.51915 162.51377 10820 ft 328 kts 89°
2026-04-21 14:51 5.52045 162.53603 10737 ft 312 kts 88°
2026-04-21 14:52 5.52180 162.55722 10614 ft 298 kts 89°
2026-04-21 14:52 5.52315 162.57766 10477 ft 289 kts 87°
2026-04-21 14:52 5.52450 162.59753 10336 ft 281 kts 88°
2026-04-21 14:52 5.52583 162.61683 10195 ft 273 kts 88°
2026-04-21 14:53 5.52713 162.63559 10066 ft 268 kts 88°
2026-04-21 14:53 5.52842 162.65454 9827 ft 276 kts 88°
2026-04-21 14:53 5.52976 162.67402 9501 ft 282 kts 88°
2026-04-21 14:53 5.53113 162.69368 9172 ft 283 kts 88°
2026-04-21 14:54 5.53248 162.71338 8871 ft 283 kts 87°
2026-04-21 14:54 5.53384 162.73307 8574 ft 282 kts 87°
2026-04-21 14:54 5.53519 162.75265 8271 ft 281 kts 87°
2026-04-21 14:54 5.53653 162.77216 7977 ft 279 kts 88°
2026-04-21 14:55 5.53787 162.79156 7681 ft 278 kts 87°
2026-04-21 14:55 5.53920 162.81089 7389 ft 277 kts 88°
2026-04-21 14:55 5.54052 162.83011 7092 ft 276 kts 88°
2026-04-21 14:55 5.54183 162.84926 6806 ft 274 kts 88°
2026-04-21 14:56 5.54314 162.86830 6520 ft 273 kts 88°
2026-04-21 14:56 5.54445 162.88729 6265 ft 271 kts 88°
2026-04-21 14:56 5.54572 162.90577 6148 ft 261 kts 88°
2026-04-21 14:56 5.54694 162.92364 5999 ft 253 kts 88°
2026-04-21 14:57 5.54813 162.94092 5866 ft 243 kts 88°
2026-04-21 14:57 5.54927 162.95741 5734 ft 230 kts 89°
2026-04-21 14:57 5.55034 162.97304 5577 ft 219 kts 89°
2026-04-21 14:57 5.55135 162.98788 5426 ft 208 kts 88°
2026-04-21 14:58 5.55232 163.00197 5281 ft 197 kts 88°
2026-04-21 14:58 5.55198 163.01527 5049 ft 186 kts 111°
2026-04-21 14:58 5.54567 163.02611 4810 ft 179 kts 131°
2026-04-21 14:58 5.53796 163.03589 4646 ft 183 kts 131°
2026-04-21 14:59 5.52993 163.04582 4419 ft 184 kts 132°
2026-04-21 14:59 5.52178 163.05567 4156 ft 183 kts 133°
2026-04-21 14:59 5.51359 163.06539 3868 ft 181 kts 136°
2026-04-21 14:59 5.50322 163.07175 3531 ft 173 kts 169°
2026-04-21 15:00 5.49201 163.07140 3326 ft 153 kts 199°
2026-04-21 15:00 5.48294 163.06643 3190 ft 147 kts 214°
2026-04-21 15:00 5.47457 163.06056 2950 ft 146 kts 214°
2026-04-21 15:00 5.46635 163.05461 2713 ft 145 kts 217°
2026-04-21 15:01 5.45855 163.04830 2526 ft 143 kts 219°
2026-04-21 15:01 5.45082 163.04169 2359 ft 146 kts 220°
2026-04-21 15:01 5.44328 163.03525 2210 ft 142 kts 221°
2026-04-21 15:01 5.43580 163.02873 2033 ft 147 kts 220°
2026-04-21 15:02 5.42756 163.02240 1883 ft 151 kts 215°
2026-04-21 15:02 5.41860 163.01712 1698 ft 147 kts 208°
2026-04-21 15:02 5.40970 163.01253 1468 ft 143 kts 207°
2026-04-21 15:02 5.40081 163.00777 1179 ft 149 kts 209°
2026-04-21 15:03 5.39179 163.00240 949 ft 149 kts 212°
2026-04-21 15:03 5.38359 162.99628 716 ft 145 kts 221°
2026-04-21 15:03 5.37678 162.98901 517 ft 142 kts 237°
2026-04-21 15:03 5.37176 162.98048 369 ft 144 kts 243°
2026-04-21 15:04 5.36628 162.97212 207 ft 138 kts 236°
2026-04-21 15:04 5.36095 162.96430 59 ft 133 kts 233°
2026-04-21 15:04 5.35701 162.95851 31 ft 57 kts 236°
2026-04-21 15:04 5.35496 162.95550 31 ft 35 kts 236°
2026-04-21 15:05 5.35440 162.95515 31 ft 3 kts 130°
2026-04-21 15:05 5.35408 162.95552 30 ft 0 kts 141°
2026-04-21 15:06 5.35406 162.95553 30 ft 0 kts 141°
2026-04-21 15:06 5.35404 162.95555 30 ft 2 kts 147°
2026-04-21 15:06 5.35381 162.95558 30 ft 5 kts 181°
2026-04-21 15:06 5.35358 162.95547 30 ft 4 kts 240°
2026-04-21 15:07 5.35335 162.95513 30 ft 4 kts 197°
2026-04-21 15:07 5.35324 162.95519 30 ft 2 kts 121°
2026-04-21 15:07 5.35318 162.95534 30 ft 2 kts 112°
2026-04-21 15:07 5.35316 162.95540 30 ft 0 kts 112°